timestamp,surface_pressure_avg,surface_temp_avg,battery_voltage,lat,long
2023-11-07 00:09:00+00:00,258.8065,9.5,11.06,47.84626,-54.09684
2023-11-07 00:19:00+00:00,258.7564,9.5,11.06,47.84626,-54.09684
2023-11-07 00:29:00+00:00,258.518,9.5,11.06,47.84626,-54.09684
2023-11-07 00:39:00+00:00,258.3647,9.55,11.06,47.84626,-54.09684
2023-11-07 00:49:00+00:00,255.4014,9.58,11.06,47.84626,-54.09684
2023-11-07 00:59:00+00:00,252.5881,9.6,11.06,47.84626,-54.09684
2023-11-07 01:09:00+00:00,252.5748,9.6,11.06,47.84626,-54.09684
2023-11-07 01:19:00+00:00,252.3897,9.6,10.98,47.84626,-54.09684
2023-11-07 01:29:00+00:00,249.0381,9.6,10.98,47.84626,-54.09684
2023-11-07 01:39:00+00:00,249.6214,9.6,10.98,47.84626,-54.09684
2023-11-07 01:49:00+00:00,251.9581,9.6,10.98,47.84626,-54.09684
2023-11-07 01:59:00+00:00,249.3214,9.6,10.98,47.84626,-54.09684
2023-11-07 02:09:00+00:00,245.6548,9.56,10.98,47.84626,-54.09684
2023-11-07 02:19:00+00:00,247.6181,9.54,10.98,47.84626,-54.09684
2023-11-07 02:29:00+00:00,250.5564,9.55,10.98,47.84626,-54.09684
2023-11-07 02:39:00+00:00,249.9665,9.54,10.98,47.84626,-54.09684
2023-11-07 02:49:00+00:00,249.6997,9.5,10.98,47.84626,-54.09684
2023-11-07 02:59:00+00:00,253.9831,9.5,10.98,47.84626,-54.09684
2023-11-07 03:09:00+00:00,257.7698,9.5,10.98,47.84626,-54.09684
2023-11-07 03:19:00+00:00,258.2664,9.5,10.98,47.84626,-54.09684
2023-11-07 03:29:00+00:00,259.5614,9.5,10.98,47.84626,-54.09684
2023-11-07 03:39:00+00:00,263.3848,9.48,10.98,47.84626,-54.09684
2023-11-07 03:49:00+00:00,265.5564,9.42,10.98,47.84626,-54.09684
2023-11-07 03:59:00+00:00,265.318,9.4,10.98,47.84626,-54.09684
2023-11-07 04:09:00+00:00,265.8181,9.4,10.98,47.84626,-54.09684
2023-11-07 13:19:00+00:00,250.2447,8.8,10.9,47.84626,-54.09684
2023-11-07 13:29:00+00:00,249.6931,8.8,10.9,47.84626,-54.09684
2023-11-07 13:39:00+00:00,247.3614,8.8,10.9,47.84626,-54.09684
2023-11-07 13:49:00+00:00,249.623,8.8,10.9,47.84626,-54.09684
2023-11-07 13:59:00+00:00,251.2897,8.8,10.9,47.84626,-54.09684
2023-11-07 14:09:00+00:00,252.4214,8.8,10.9,47.84626,-54.09684
2023-11-07 14:19:00+00:00,252.1614,8.8,11.22,47.84626,-54.09684
2023-11-07 14:29:00+00:00,252.8031,8.8,11.22,47.84626,-54.09684
2023-11-07 14:39:00+00:00,252.7014,8.8,11.22,47.84626,-54.09684
2023-11-07 14:49:00+00:00,257.9064,8.8,11.22,47.84626,-54.09684
2023-11-07 14:59:00+00:00,263.9064,8.8,11.22,47.84626,-54.09684
2023-11-07 15:09:00+00:00,264.4548,8.8,11.22,47.84626,-54.09684
2023-11-07 15:19:01+00:00,263.5164,8.8,11.37,47.84626,-54.09684
2023-11-07 15:29:01+00:00,267.7747,8.81,11.37,47.84626,-54.09684
2023-11-07 15:39:01+00:00,272.4597,8.86,11.37,47.84626,-54.09684
2023-11-07 15:49:01+00:00,272.983,8.89,11.37,47.84626,-54.09684
2023-11-07 15:59:01+00:00,276.2797,8.89,11.37,47.84626,-54.09684
2023-11-07 16:09:01+00:00,281.4847,8.9,11.37,47.84626,-54.09684
2023-11-07 16:19:01+00:00,285.308,8.9,11.14,47.84626,-54.09684
2023-11-07 16:29:01+00:00,288.0181,8.95,11.14,47.84626,-54.09684
2023-11-07 16:39:01+00:00,294.7914,9.0,11.14,47.84626,-54.09684
2023-11-07 16:49:01+00:00,297.0831,9.09,11.14,47.84626,-54.09684
2023-11-07 16:59:01+00:00,298.0114,9.06,11.14,47.84626,-54.09684
2023-11-07 17:09:01+00:00,302.0931,9.0,11.14,47.84626,-54.09684
2023-11-07 17:19:01+00:00,309.228,9.0,11.14,47.84626,-54.09684
2023-11-07 17:29:01+00:00,309.1047,9.0,11.14,47.84626,-54.09684
2023-11-07 17:39:01+00:00,310.5814,9.0,11.14,47.84626,-54.09684
2023-11-07 17:49:01+00:00,315.5797,9.01,11.14,47.84626,-54.09684
2023-11-07 17:59:01+00:00,320.2346,9.04,11.14,47.84626,-54.09684
2023-11-07 18:09:01+00:00,324.9046,9.05,11.14,47.84626,-54.09684
2023-11-07 18:19:01+00:00,330.2496,9.07,11.06,47.84626,-54.09684
2023-11-07 18:29:01+00:00,332.3096,9.08,11.06,47.84626,-54.09684
2023-11-07 18:39:01+00:00,327.7079,9.07,11.06,47.84626,-54.09684
2023-11-07 18:49:01+00:00,329.4997,9.1,11.06,47.84626,-54.09684
2023-11-07 18:59:01+00:00,338.2346,9.1,11.06,47.84626,-54.09684
2023-11-07 19:09:01+00:00,339.1863,9.1,11.06,47.84626,-54.09684
2023-11-07 19:19:00+00:00,336.2646,9.1,10.98,47.84626,-54.09684
2023-11-07 19:29:00+00:00,334.3463,9.1,10.98,47.84626,-54.09684
2023-11-07 19:39:00+00:00,340.4764,9.1,10.98,47.84626,-54.09684
2023-11-07 19:49:00+00:00,341.1979,9.1,10.98,47.84626,-54.09684
2023-11-07 19:59:00+00:00,342.5381,9.1,10.98,47.84626,-54.09684
2023-11-07 20:09:00+00:00,346.8963,9.1,10.98,47.84626,-54.09684
2023-11-07 20:19:00+00:00,344.0946,9.1,10.98,47.84626,-54.09684
2023-11-07 20:29:00+00:00,340.8397,9.04,10.98,47.84626,-54.09684
2023-11-07 20:39:00+00:00,338.4629,9.0,10.98,47.84626,-54.09684
2023-11-07 20:49:00+00:00,335.9329,9.0,10.98,47.84626,-54.09684
2023-11-07 20:59:00+00:00,330.1946,9.0,10.98,47.84626,-54.09684
2023-11-07 21:09:00+00:00,325.1346,9.0,10.98,47.84626,-54.09684
